Change the Weather History Date:

Friday, July 12, 2013

  Actual Average (KMSP) Record (KMSP)
Temperature  
Mean Temperature 75 °F 74 °F  
Max Temperature 84 °F 84 °F 106 °F (1936)
Min Temperature 66 °F 64 °F 48 °F (1941)
Degree Days  
Heating Degree Days 0 0  
Month to date heating degree days 0  
Since 1 June heating degree days 44  
Since 1 July heating degree days 0  
Cooling Degree Days 10 9  
Month to date cooling degree days 106  
Year to date cooling degree days 306  
Since 1 June cooling degree days 264  
Growing Degree Days 25 (Base 50)    
Moisture  
Dew Point 59 °F    
Average Humidity 58    
Maximum Humidity 74    
Minimum Humidity 43    
Precipitation  
Precipitation 0.00 in 0.13 in 2.93 in (1912)
Month to date precipitation 1.54  
Year to date precipitation 15.37  
Snow  
Snow 0.00 in 0.00 in 0.00 in ()
Month to date snowfall 0.0  
Since 1 June snowfall 0.0  
Since 1 July snowfall 0.0  
Snow Depth -    
Sea Level Pressure  
Sea Level Pressure 30.01 in    
Wind  
Wind Speed 10 mph (SSE)    
Max Wind Speed 20 mph    
Max Gust Speed 29 mph    
Visibility 10 miles    
Events      
T = Trace of Precipitation, MM = Missing Value Source: NWS Daily Summary

Daily Weather History Graph

Daily Weather History Graph

Search for Another Location

Airport or City:

Trip Planner

Search our weather history database for the weather conditions in past years. The results will help you decide how hot, cold, wet, or windy it might be!

Date:

Astronomy

Jul. 12, 2013 Rise Set
Actual Time 5:34 AM CDT 8:56 PM CDT
Civil Twilight 4:58 AM CDT 9:32 PM CDT
Nautical Twilight 4:10 AM CDT 10:20 PM CDT
Astronomical Twilight 3:10 AM CDT 11:19 PM CDT
Moon 10:06 AM CDT (7/12) 10:51 PM CDT (7/12)
Length of Visible Light 16h 34m
Length of Day
15h 21m
Waxing Crescent, 17% of the Moon is Illuminated
Jul 12
Waxing Crescent
Jul 15
First Quarter
Jul 22
Full
Jul 29
Last Quarter
Aug 6
New

Hourly Weather History & Observations

Time (CDT) Temp. Heat Index Dew Point Humidity Pressure Visibility Wind Dir Wind Speed Gust Speed Precip Events Conditions
12:15 AM 69.3 °F - 57.6 °F 66% 30.04 in 10.0 mi South 8.1 mph - N/A   Clear
12:35 AM 68.5 °F - 57.6 °F 68% 30.03 in 10.0 mi SSE 6.9 mph - N/A   Clear
12:55 AM 68.0 °F - 57.7 °F 70% 30.03 in 10.0 mi South 8.1 mph - N/A   Clear
1:15 AM 67.5 °F - 57.7 °F 71% 30.03 in 10.0 mi SSE 6.9 mph - N/A   Clear
1:35 AM 67.1 °F - 57.6 °F 71% 30.03 in 10.0 mi South 6.9 mph - N/A   Clear
1:55 AM 67.1 °F - 57.6 °F 71% 30.03 in 10.0 mi South 8.1 mph - N/A   Scattered Clouds
2:15 AM 66.2 °F - 57.6 °F 74% 30.03 in 10.0 mi South 5.8 mph - N/A   Scattered Clouds
2:35 AM 66.6 °F - 57.6 °F 73% 30.03 in 10.0 mi South 6.9 mph - N/A   Scattered Clouds
2:55 AM 66.6 °F - 57.4 °F 72% 30.03 in 10.0 mi SSE 6.9 mph - N/A   Scattered Clouds
3:15 AM 66.2 °F - 57.4 °F 73% 30.03 in 10.0 mi South 6.9 mph - N/A   Mostly Cloudy
3:35 AM 66.2 °F - 57.6 °F 74% 30.04 in 10.0 mi South 6.9 mph - N/A   Scattered Clouds
3:55 AM 66.6 °F - 57.6 °F 73% 30.04 in 10.0 mi South 8.1 mph - N/A   Mostly Cloudy
4:15 AM 66.4 °F - 57.4 °F 73% 30.04 in 10.0 mi South 5.8 mph - N/A   Scattered Clouds
4:35 AM 66.9 °F - 57.6 °F 72% 30.04 in 10.0 mi South 8.1 mph - N/A   Scattered Clouds
4:55 AM 66.6 °F - 57.6 °F 73% 30.04 in 10.0 mi South 8.1 mph - N/A   Scattered Clouds
5:15 AM 66.4 °F - 57.4 °F 73% 30.04 in 10.0 mi South 8.1 mph - N/A   Clear
5:35 AM 66.0 °F - 57.4 °F 74% 30.05 in 10.0 mi South 6.9 mph - N/A   Clear
5:55 AM 66.2 °F - 57.6 °F 74% 30.05 in 10.0 mi SSE 6.9 mph - N/A   Clear
6:15 AM 66.6 °F - 57.6 °F 73% 30.05 in 10.0 mi South 8.1 mph - N/A   Clear
6:35 AM 67.3 °F - 57.4 °F 70% 30.05 in 10.0 mi South 11.5 mph - N/A   Clear
6:55 AM 68.2 °F - 57.4 °F 68% 30.05 in 10.0 mi SSE 10.4 mph - N/A   Clear
7:15 AM 68.7 °F - 58.1 °F 69% 30.05 in 10.0 mi South 6.9 mph - N/A   Clear
7:35 AM 69.8 °F - 58.1 °F 66% 30.06 in 10.0 mi South 9.2 mph - N/A   Clear
7:55 AM 70.7 °F - 58.3 °F 65% 30.06 in 10.0 mi South 10.4 mph 16.1 mph N/A   Clear
8:15 AM 71.6 °F - 58.5 °F 63% 30.06 in 10.0 mi South 9.2 mph 17.3 mph N/A   Clear
8:35 AM 72.7 °F - 58.6 °F 61% 30.06 in 10.0 mi South 10.4 mph 16.1 mph N/A   Clear
8:55 AM 73.4 °F - 58.3 °F 59% 30.06 in 10.0 mi South 11.5 mph - N/A   Clear
9:15 AM 74.3 °F - 58.3 °F 57% 30.06 in 10.0 mi South 12.7 mph 18.4 mph N/A   Clear
9:35 AM 74.7 °F - 58.1 °F 56% 30.06 in 10.0 mi South 15.0 mph 19.6 mph N/A   Clear
9:55 AM 75.6 °F - 58.6 °F 56% 30.05 in 10.0 mi South 15.0 mph 19.6 mph N/A   Clear
10:15 AM 76.1 °F - 58.6 °F 55% 30.04 in 10.0 mi South 15.0 mph 21.9 mph N/A   Clear
10:35 AM 76.8 °F - 58.8 °F 54% 30.05 in 10.0 mi South 16.1 mph 23.0 mph N/A   Clear
10:55 AM 77.9 °F - 59.5 °F 53% 30.04 in 10.0 mi SSE 15.0 mph 19.6 mph N/A   Clear
11:15 AM 78.1 °F - 59.4 °F 52% 30.03 in 10.0 mi SSE 17.3 mph 21.9 mph N/A   Clear
11:35 AM 78.8 °F - 60.4 °F 53% 30.03 in 10.0 mi South 13.8 mph 23.0 mph N/A   Clear
11:55 AM 79.0 °F - 59.9 °F 52% 30.03 in 10.0 mi SSE 13.8 mph 20.7 mph N/A   Clear
12:15 PM 79.7 °F - 60.3 °F 51% 30.02 in 10.0 mi SSE 17.3 mph 21.9 mph N/A   Clear
12:35 PM 80.6 °F 81.2 °F 60.1 °F 49% 30.02 in 10.0 mi South 13.8 mph 23.0 mph N/A   Clear
12:55 PM 80.6 °F 81.2 °F 60.1 °F 49% 30.02 in 10.0 mi South 19.6 mph 28.8 mph N/A   Clear
1:15 PM 81.1 °F 81.9 °F 61.0 °F 50% 30.01 in 10.0 mi South 17.3 mph 24.2 mph N/A   Clear
1:35 PM 81.9 °F 82.3 °F 60.6 °F 48% 30.00 in 10.0 mi SSE 18.4 mph 25.3 mph N/A   Clear
1:55 PM 82.0 °F 82.5 °F 60.6 °F 48% 30.00 in 10.0 mi SSE 17.3 mph 25.3 mph N/A   Clear
2:15 PM 82.6 °F 82.9 °F 60.3 °F 47% 30.01 in 10.0 mi South 19.6 mph 26.5 mph N/A   Clear
2:35 PM 83.1 °F 83.3 °F 60.4 °F 46% 30.00 in 10.0 mi South 16.1 mph 24.2 mph N/A   Clear
2:55 PM 83.3 °F 83.5 °F 60.3 °F 46% 30.00 in 10.0 mi South 19.6 mph 24.2 mph N/A   Clear
3:15 PM 83.3 °F 83.4 °F 59.9 °F 45% 29.99 in 10.0 mi SSE 18.4 mph 23.0 mph N/A   Clear
3:35 PM 83.7 °F 83.8 °F 60.3 °F 45% 29.99 in 10.0 mi SSE 16.1 mph 20.7 mph N/A   Clear
3:55 PM 83.8 °F 83.8 °F 59.5 °F 44% 29.99 in 10.0 mi SSE 19.6 mph 27.6 mph N/A   Clear
4:15 PM 84.2 °F 84.0 °F 59.4 °F 43% 29.98 in 10.0 mi South 17.3 mph 25.3 mph N/A   Clear
4:35 PM 84.2 °F 84.2 °F 60.1 °F 44% 29.98 in 10.0 mi South 15.0 mph 21.9 mph N/A   Clear
4:55 PM 84.2 °F 84.6 °F 61.2 °F 46% 29.97 in 10.0 mi South 12.7 mph 24.2 mph N/A   Clear
5:15 PM 83.3 °F 83.2 °F 59.2 °F 44% 29.98 in 10.0 mi SSE 18.4 mph 24.2 mph N/A   Clear
5:35 PM 83.1 °F 83.0 °F 58.8 °F 44% 29.98 in 10.0 mi South 18.4 mph 24.2 mph N/A   Clear
5:55 PM 82.9 °F 83.0 °F 59.5 °F 45% 29.98 in 10.0 mi SSE 13.8 mph 23.0 mph N/A   Clear
6:15 PM 82.8 °F 83.0 °F 60.3 °F 46% 29.98 in 10.0 mi South 11.5 mph 20.7 mph N/A   Clear
6:35 PM 82.2 °F 82.4 °F 59.5 °F 46% 29.97 in 10.0 mi South 15.0 mph 21.9 mph N/A   Clear
6:55 PM 82.0 °F 82.1 °F 58.6 °F 45% 29.98 in 10.0 mi SSE 16.1 mph 20.7 mph N/A   Clear
7:15 PM 81.1 °F 81.4 °F 58.6 °F 46% 29.97 in 10.0 mi SSE 10.4 mph 17.3 mph N/A   Clear
7:35 PM 80.6 °F 81.0 °F 58.5 °F 47% 29.97 in 10.0 mi South 12.7 mph 19.6 mph N/A   Clear
7:55 PM 79.7 °F - 59.2 °F 49% 29.97 in 10.0 mi SSE 11.5 mph 17.3 mph N/A   Clear
8:15 PM 78.6 °F - 59.0 °F 51% 29.97 in 10.0 mi SSE 12.7 mph 19.6 mph N/A   Clear
8:35 PM 77.9 °F - 59.0 °F 52% 29.96 in 10.0 mi SSE 12.7 mph 19.6 mph N/A   Clear
8:55 PM 76.8 °F - 58.8 °F 54% 29.96 in 10.0 mi SSE 11.5 mph 17.3 mph N/A   Clear
9:15 PM 75.6 °F - 59.4 °F 57% 29.96 in 10.0 mi SSE 10.4 mph - N/A   Clear
9:35 PM 75.2 °F - 59.9 °F 59% 29.96 in 10.0 mi SSE 10.4 mph 16.1 mph N/A   Clear
9:55 PM 74.7 °F - 59.9 °F 60% 29.97 in 10.0 mi SSE 9.2 mph - N/A   Clear
10:15 PM 74.3 °F - 59.9 °F 61% 29.95 in 10.0 mi SSE 9.2 mph - N/A   Clear
10:35 PM 73.8 °F - 59.4 °F 61% 29.96 in 10.0 mi SSE 11.5 mph 18.4 mph N/A   Clear
10:55 PM 73.4 °F - 59.2 °F 61% 29.97 in 10.0 mi SSE 11.5 mph 17.3 mph N/A   Clear
11:15 PM 73.0 °F - 58.6 °F 61% 29.98 in 10.0 mi South 11.5 mph 18.4 mph N/A   Clear
11:35 PM 72.5 °F - 58.1 °F 60% 29.98 in 10.0 mi South 11.5 mph - N/A   Clear
11:55 PM 72.5 °F - 57.4 °F 59% 29.99 in 10.0 mi South 9.2 mph - N/A   Clear